Weather in Haiphong

Vietnam     20°51′14″N   106°40′15″E
temp.,
°C
wind,
m/s
gust,
m/s
humid.,
%
clouds,
%
prec.,
mm/h
press.,
hPa
HPBL,
m
6 march, sat
sat601:00+22se379396 0.1 1012417
04:00+22se3893100 0.2 1012433
07:00+22ese4792100 0.3 1013282
10:00+23ese4688100 0.2 1016359
13:00+23se3685100 0.7 1013410
16:00+24ese4680100 0.1 1012389
19:00+22ese338470 0.1 101282
22:00+22ssw128579 1.0 101530
7 march, sun
sun701:00+21e129163 5.2 101426
04:00+22ene358590 2.0 1014152
07:00+22e488552 2.1 1016296
10:00+23e6108061 0.6 1018404
13:00+23e7107980 1.3 1016341
16:00+23e697981 0.3 1013327
19:00+21e6108865 3.4 1016290
22:00+21e5118767 1.8 1017389
8 march, mon
mon801:00+21ene6119265 2.6 1016340
04:00+21e6109298 0.2 1015329
07:00+21e6109399 0.6 1017358
10:00+22e6991100 0.4 1019325
13:00+23e6887100 0.5 1016323
16:00+23e588793 0.1 1014313
19:00+21e6109468 0.1 1015335
22:00+21e599311 0.0 1017355
9 march, tue
tue901:00+21e479424 0.0 1016285
04:00+21e479390 0.0 1016338
07:00+21e589395 0.3 1018281
10:00+23e4685100 0.6 1019225
13:00+23ese458496 1.4 1017264
16:00+23ese568587 0.4 1015311
19:00+21e599073 0.6 1016283
22:00+21e489117 0.0 1018246
10 march, wed
wed1001:00+21e59939 0.0 1017323
04:00+21e589383 0.0 1016344
07:00+21e579391 0.3 1018265
10:00+22e5788100 0.3 1019287
13:00+24ese568092 0.6 1016380
16:00+23e568499 0.1 1015234
19:00+21e478755 0.1 1016156
22:00+21ese47890 0.0 1018210